Juprelle, Belgium
Current Conditions -  °F | °C
As of 12:50 PM on Thursday 23 Oct 2014 (Local Time) from EBLG Reporting Station
Broken Clouds Broken Clouds  
Wind Chill: 52°   Ceiling: 3100
Heat Index: 52°   Visibility: 6mi
Dew Point: 46°   Wind: 10mph
Humidity: 82%   Direction: 200°SSW
Pressure: 30.24"   Gusts: NA
Location:  50.71°N, 5.53°E
Report Text: EBLG 231050Z 20009KT 9000 FEW011 BKN031 11/08 Q1024 NOSIG
Loading
Personal Weather Stations






























Interactive Weather Map New forecast layout! Learn more

10-Day Weather Forecast

Advertisements
Track Severe Weather on mobile